Home   Weather   Elbasan   Past weeks
Flag for Albania

Past Weather in Elbasan, Albania — Yesterday and Last 2 Weeks

Now
63 °F

Sunny.


Feels Like: 63 °F
Forecast: 91 / 65 °F
Wind: 2 mph from North

Location: Tirana Airport

Current Time: Jun 25, 2019 at 5:50:06 am

Latest Report: Jun 25, 2019 at 5:20 am


Visibility: 10 mi

Pressure: 29.95 "Hg

Humidity: 100%

Dew Point: 63 °F

Location of ElbasanLocation

Past Weather in Elbasan — Graph

°F

Elbasan Temperature Yesterday

Maximum temperature yesterday: 82 °F (at 9:20 am)
Minimum temperature yesterday: 68 °F (at 1:50 pm)
Average temperature yesterday: 74 °F

High & Low Weather Summary for the Past Weeks

 TemperatureHumidityPressure
High97 °F (Jun 15, 1:20 pm)94% (Jun 10, 5:20 am)30.01 "Hg (Jun 10, 5:20 am)
Low63 °F (Jun 10, 4:50 am)36% (Jun 22, 12:50 pm)29.80 "Hg (Jun 10, 5:20 pm)
Average78 °F70%29.92 "Hg
* Reported Jun 10 4:20 am — Jun 25 4:20 am, Elbasan. Weather by CustomWeather, © 2019

Note: Actual official high and low records may vary slightly from our data, if they occured in-between our weather recording intervals... More about our weather records

Advertising

Elbasan Weather History for the Previous 24 Hours

Scroll right to see more
 ConditionsComfort  
Time TempWeatherWind HumidityBarometerVisibility
4:20 am
Tue, Jun 25
63 °FPassing clouds.3 mph94%29.95 "HgN/A
3:50 am64 °FClear.5 mph94%29.95 "Hg10 mi
3:20 am64 °FClear.1 mph94%29.95 "Hg10 mi
2:20 am64 °FClear.2 mph94%29.98 "Hg10 mi
1:50 am66 °FClear.1 mph94%29.95 "Hg10 mi
1:20 am66 °FClear.3 mph94%29.95 "Hg10 mi
12:50 am66 °FPassing clouds.3 mph94%29.95 "HgN/A
12:20 am68 °FClear.2 mph88%29.95 "Hg10 mi
11:50 pm
Mon, Jun 24
70 °FClear.No wind88%29.98 "Hg10 mi
11:20 pm68 °FClear.No wind94%29.98 "Hg10 mi
10:50 pm68 °FClear.1 mph94%29.98 "Hg10 mi
10:20 pm72 °FClear.1 mph83%29.98 "Hg10 mi
9:50 pm73 °FClear.No wind78%29.95 "Hg10 mi
9:20 pm73 °FClear.1 mph78%29.95 "Hg10 mi
8:20 pm72 °FClear.2 mph83%29.95 "Hg10 mi
7:50 pm75 °FSunny.2 mph78%29.95 "Hg10 mi
7:20 pm75 °FSunny.6 mph74%29.95 "Hg10 mi
6:50 pm77 °FSunny.3 mph69%29.95 "Hg10 mi
6:20 pm77 °FScattered clouds.6 mph74%29.95 "HgN/A
5:50 pm75 °FScattered clouds.3 mph83%29.95 "HgN/A
5:20 pm75 °FPartly sunny.2 mph78%29.95 "HgN/A
4:50 pm75 °FLight rain. Broken clouds.2 mph78%29.95 "HgN/A
4:20 pm75 °FLight rain. Broken clouds.1 mph69%29.95 "HgN/A
3:50 pm75 °FLight rain. Broken clouds.2 mph78%29.95 "HgN/A
3:20 pm73 °FBroken clouds.2 mph74%29.95 "HgN/A
2:50 pm72 °FLight rain. Broken clouds.1 mph83%29.95 "HgN/A
2:20 pm70 °FLight rain. Broken clouds.2 mph83%29.95 "HgN/A
1:50 pm68 °FThunderstorms. Partly sunny.1 mph88%29.98 "Hg5 mi
1:20 pm70 °FThunderstorms. Broken clouds.13 mph73%29.98 "HgN/A
12:50 pm75 °FThundershowers. Broken clouds.12 mph57%29.95 "HgN/A
12:20 pm81 °FBroken clouds.7 mph74%29.95 "HgN/A
11:50 am79 °FScattered clouds.7 mph79%29.95 "HgN/A
11:20 am77 °FScattered clouds.5 mph83%29.95 "HgN/A
10:50 am73 °FScattered clouds.6 mph83%29.95 "HgN/A
10:20 am82 °FBroken clouds.3 mph70%29.95 "HgN/A
9:50 am82 °FPartly sunny.2 mph62%29.95 "HgN/A
9:20 am82 °FPassing clouds.No wind66%29.95 "HgN/A
8:50 am81 °FPassing clouds.No wind70%29.95 "HgN/A
8:20 am77 °FPassing clouds.5 mph69%29.95 "HgN/A
7:50 am77 °FSunny.5 mph74%29.95 "Hg10 mi
7:20 am73 °FPassing clouds.3 mph78%29.95 "HgN/A
6:50 am72 °FScattered clouds.3 mph88%29.95 "HgN/A
6:20 am72 °FScattered clouds.3 mph83%29.95 "HgN/A
5:50 am70 °FScattered clouds.5 mph88%29.95 "HgN/A
5:20 am70 °FScattered clouds.3 mph88%29.95 "HgN/A
Weather by CustomWeather, © 2019

See weather overview